Погода в Каралде

Россия / Кемеровская область (Кузбасс)     54°23′25″N   86°59′08″E
темп.,
°C
ветер,
м/с
пор.,
м/с
влажн.,
%
обл.,
%
осадки,
мм/ч
давл.,
гПа
погр.,
м
18 апреля, вс
вс1801:00−5юв1187100 0.0 102358
04:00−3юв2483100 0.0 1021172
07:00−1ююз3781100 0.0 1020461
10:00+2юз4870100 0.0 10181214
13:00+5юз5859100 0.2 10171808
16:00+5юз6860100 0.1 10151553
19:00+4ююз51071100 0.1 1013516
22:00+3ююв41285100 0.6 1010627
19 апреля, пн
пн1901:00+4юз41085100 1.4 1004577
04:00+4юз61395100 4.0 1001998
07:00+1з10209299 5.3 10021505
10:00−5зсз91475100 0.1 10111407
13:00−4сз6965100 0.3 10181580
16:00−4зсз5861100 0.1 10201681
19:00−4сз4662100 0.3 10211211
22:00−5ссз4567100 0.0 1023967
20 апреля, вт
вт2001:00−7ссз366992 0.1 1024991
04:00−7ссз355864 0.0 1025999
07:00−7сз245898 0.0 1026975
10:00−5сз3357100 0.1 10261310
13:00−3сз3350100 0.1 10261616
16:00−2ссз3448100 0.1 10251620
19:00−3с335434 0.1 1025970
22:00−5в11743 0.0 102619
21 апреля, ср
ср2101:00−5ююв127317 0.0 102551
04:00−5ююв2475100 0.0 1025131
07:00−5ююв2671100 0.0 1024311
10:00−2ю4548100 0.0 10241523
13:000ююз3437100 0.0 10232007
16:00+1ююз1241100 0.1 10231605
19:000всв225799 0.1 1024540
22:00−3ссв227916 0.0 102622
22 апреля, чт
чт2201:00−4с24815 0.0 102692
04:00−4с248017 0.0 102798
07:00−4ссв26806 0.0 1029156
10:00+1св565310 0.0 1031949
13:00+3св564599 0.1 10321977
16:00+3ссв664688 0.0 10341814
19:00+1ссв59655 0.1 10371027
22:00−2ссв4117651 0.0 1039386